Voltar ao catálogo

FREGAT DEB

LostUNKNOWN
NORAD 46410·DEBRIS·🇷🇺 Russia

Lançado Jul 18, 2011 de Baikonur Cosmodrome

Loading…

Próximas Passagens (próximas 24 horas)

TLE

ObsoletoSource: Space-Track

Época: Jan 3, 2023, 21:14 UTC

1 46410U 11037LR  23003.88516144 -.00006145  00000-0 -58903-1 0  9996
2 46410  51.6725 222.4851 2030993 103.2838 280.1085  9.66798814 32577

Acompanhe FREGAT DEB em tempo real com AllMySat

Download on the App Store